Regional Weather Roundup
Issued by NWS

Home | Current Version | Previous Version | Text Only | Print | Product List | Glossary Off
Versions: 1 2 3 4 5 6 7 8 9 10 11 12 13 14 15 16 17 18 19 20 21 22 23 24 25 26 27 28 29 30 31 32 33 34 35 36 37 38 39 40 41 42 43 44 45 46 47 48 49 50

000
ASUS45 KABQ 270910
RWRNM
WEATHER ROUNDUP FOR NEW MEXICO
NATIONAL WEATHER SERVICE ALBUQUERQUE NM
200 AM MST FRI FEB 27 2015

NOTE: "FAIR" MEANS FEW OR NO CLOUDS BELOW 12,000 FEET AGL WITH NO
       SIGNIFICANT WEATHER OR OBSTRUCTIONS TO VISION.

      THIS PRODUCT IS RELEASED AS TWO VERSIONS.  ONE VERSION NEAR
      THE TOP OF THE HOUR CONTAINING PRELIMINARY DATA FROM ALBUQUERQUE
      AND OTHER STATIONS.  A FINAL VERSION WITH ADDITIONAL DATA IS
      ISSUED ABOUT 10 MINUTES AFTER THE HOUR.

NMZ501-503-504-510>518-271000-
NORTHWEST PLATEAU/NORTHCENTRAL MOUNTAINS

CITY           SKY/WX    TMP DP  RH WIND       PRES   REMARKS
FARMINGTON     CLOUDY    30  29  96 W8        29.85R FOG     WCI  22
LOS ALAMOS     LGT SNOW  14  14  98 S16G25    29.92S WCI  -2
SANTA FE       LGT SNOW  17  10  74 SE24G31   29.95F WCI  -1
TAOS           CLOUDY    18  12  79 SW10      29.89S WCI   6
ANGEL FIRE     LGT SNOW  10   5  80 S17       29.88S WCI  -8

$$
NMZ402-403-502-505>509-271000-
WESTCENTRAL MOUNTAINS/SOUTHWEST MOUNTAINS

CITY           SKY/WX    TMP DP  RH WIND       PRES   REMARKS
GALLUP         MOCLDY    28  26  92 CALM      29.87R
GRANTS         CLOUDY    25  24  96 S12       29.91S WCI  14
SILVER CITY    PTCLDY    32  25  74 SE6       29.96R WCI  26

$$
NMZ407-409-411-412-271000-
SOUTHERN DESERTS

CITY           SKY/WX    TMP DP  RH WIND       PRES   REMARKS
LORDSBURG      FAIR      36  27  69 SE17G23   29.91S WCI  25
DEMING         PTCLDY    33  24  69 MISG      29.95S
LAS CRUCES     CLOUDY    32  24  72 SE23      29.95F WCI  19
HOLLOMAN AFB   CLOUDY    33  31  92 VRB5      29.98S WCI  29
ALAMOGORDO     CLOUDY    32  32 100 MISG      29.98F
T OR C         FOG       32  32 100 N5        29.93S VSB 1/2 WCI  27

$$
NMZ519>523-271000-
CENTRAL VALLEYS/CENTRAL HIGHLANDS

CITY           SKY/WX    TMP DP  RH WIND       PRES   REMARKS
ALBUQUERQUE    LGT SNOW  23  18  81 E20       29.97R WCI   8
DOUBLE EAGLE   LGT SNOW  21  19  91 N6        29.96S WCI  13
MORIARTY ARPT  FLURRIES  16  12  84 SE5       30.02F WCI   9
CLINES CORNERS LGT SNOW  13   9  84 E14       29.94F FOG     WCI  -2
BELEN          LGT SNOW  27  27  99 SE13      29.96R WCI  16
SOCORRO          N/A     31  31 100 CALM      29.96F FOG

$$
NMZ524>526-539-540-271000-
SOUTHCENTRAL MOUNTAINS

CITY           SKY/WX    TMP DP  RH WIND       PRES   REMARKS
RUIDOSO        LGT SNOW  16  14  93 E10       29.99S WCI   3

$$
NMZ527>531-271000-
NORTHEAST HIGHLANDS/NORTHEAST PLAINS

CITY           SKY/WX    TMP DP  RH WIND       PRES   REMARKS
LAS VEGAS      LGT SNOW  11   8  88 SE9       30.00F FOG     WCI  -2
RATON          LGT SNOW  11   7  84 S12       30.01F FOG     WCI  -3
CLAYTON        LGT SNOW  13   9  84 SE12      30.15F FOG     WCI  -1

$$
NMZ532>537-271000-
EASTCENTRAL PLAINS

CITY           SKY/WX    TMP DP  RH WIND       PRES   REMARKS
TUCUMCARI      LGT SNOW  19  16  88 E15       30.17F FOG     WCI   5
CANNON AFB     LGT SNOW  16  13  89 SE15      30.15F FOG     WCI   1
CLOVIS AIRPORT CLOUDY    16  12  86 SE17      30.16F WCI   0

$$
NMZ028-029-538-271000-
SOUTHEAST PLAINS

CITY           SKY/WX    TMP DP  RH WIND       PRES   REMARKS
ROSWELL        SNOW      23  20  88 SE12      30.17F VSB 1/2 WCI  12
ARTESIA        LGT SNOW  23  23 100 SE10      30.18F WCI  12
CARLSBAD       CLOUDY    28  18  66 E12       30.18F WCI  18
HOBBS          CLOUDY    19  18  93 E9        30.21S WCI   9


$$



USA.gov is the U.S. government's official web portal to all federal, state and local government web resources and services.